User: anonymous
Location: Ciudad Delicias
(28.2170°N, 105.4670°W)
Time: 15:59:19
(UTC-07:00)
Language:

ETS-7 - Orbit

View from above orbital plane
View from above orbital plane
View from above satellite
View from above satellite

Ground track
Ground track

The orbit data is extracted from the following two-line orbital elements,

1 25064U 97074B   14237.26513314  .00015319  00000-0  26053-3 0  2335
2 25064 034.9626 175.7194 0004021 323.2452 162.4747 15.50505245931894
Epoch (UTC): 25 August 2014 06:21:47
Eccentricity: 0.0004021
inclination: 34.9626°
perigee height: 412 km
apogee height: 418 km
right ascension of ascending node: 175.7194°
argument of perigee: 323.2452°
revolutions per day: 15.50505245
mean anomaly at epoch: 162.4747°
orbit number at epoch: 93189

The dashed part of the orbit path shows where the satellite is in the earth's shadow,  

DLR